Content
SEND FEEDBACK

Daily
Averages
Monthly
Summary
Mauritania

PORT-ETIENNE, MAURITANIA


Home > Africa > Mauritania
Elevation: 10 feet     Latitude: 20 54N     Longitude: 017 06W

WEATHER
 
SELECT A DAY
Number of Records: 118,144;   Date Range: 7/1/96 - 9/15/14
 
SHARE

PRINT THIS DATA

[ ← Previous Day ]
WEATHER ALMANAC - NOVEMBER 29, 2013
[ Next Day → ]
[ °C ]   °F
Weather ElementAverageHighLow
Temperature73.9 °F84.2 °F (2:00 pm)68 °F (12:00 am)
Dewpoint57 °F60.8 °F (10:00 pm)50 °F (2:00 pm)
Humidity54.9 %73 % (7:00 am)30 % (2:00 pm)
Barometer29.97 in30.04 in (9:00 pm)29.92 in (5:00 am)
Wind Speed9.8 mph17.3 mph (11:00 pm)
Weather ElementAverage
Visibility5 mi
Wind DirectionWSW (264.1 °)

Weather ElementTotal
Precipitation---
Cooling Degree Days11.1 (Base 65)
Growing Degree Days26.1 (Base 50)
Averaged from 29 records on November 29, 2013
WEATHER CONDITIONS BREAKOUT
WIND DIRECTION BREAKOUT
WEATHER BY HOUR - NOVEMBER 29, 2013
[ °C ]   °F
Local TimeTemperatureDewpointHumidityBarometerVisibilityWind DirectionWind SpeedGust SpeedPrecipitationEventsConditions
12:00 AM68.0 °F57.2 °F68 %29.98 in5.0 miNorth (350°)6.9 mph
1:00 AM68.0 °F57.2 °F68 %29.98 in5.0 miNorth (350°)6.9 mph
2:00 AM68.0 °F57.2 °F68 %29.95 in5.0 miNNW (340°)8.1 mph
3:00 AM68.0 °F58.0 °F62 %29.96 in5.0 miNorth11.5 mphMostly Cloudy
3:00 AM68.0 °F57.2 °F68 %29.95 in5.0 miNNW (340°)11.5 mph
5:00 AM68.0 °F55.4 °F64 %29.92 in5.0 miNNW (340°)9.2 mph
6:00 AM68.0 °F55.4 °F64 %29.92 in5.0 miNNW (340°)9.2 mph
7:00 AM68.0 °F59.0 °F73 %29.95 in5.0 miNorth (360°)9.2 mph
8:00 AM68.0 °F57.2 °F68 %29.98 in5.0 miNorth (360°)9.2 mph
9:00 AM70.0 °F60.0 °F63 %29.99 in5.0 miNorth11.5 mphRainLight Rain
9:00 AM69.8 °F59.0 °F68 %29.98 in5.0 miNorth (10°)10.4 mph
10:00 AM71.6 °F57.2 °F60 %30.01 in5.0 miNNW (340°)4.6 mph
11:00 AM78.8 °F53.6 °F42 %30.01 in5.0 miNorth (360°)10.4 mph
12:00 PM78.8 °F53.6 °F42 %29.98 in5.0 miNorth (10°)10.4 mph
12:00 PM78.0 °F54.0 °F33 %30.01 in5.0 miNorth11.5 mphPartly Cloudy
1:00 PM80.6 °F53.6 °F39 %29.95 in5.0 miNorth (10°)9.2 mph
2:00 PM84.2 °F50.0 °F30 %29.95 in5.0 miNorth (360°)9.2 mph
3:00 PM82.0 °F58.0 °F34 %29.95 in5.0 miNW (310°)5.8 mphMostly Cloudy
3:00 PM80.6 °F57.2 °F45 %29.92 in5.0 miWNW (300°)5.8 mph
4:00 PM80.6 °F57.2 °F45 %29.92 in5.0 miWNW (300°)8.1 mph
5:00 PM77.0 °F59.0 °F54 %29.92 in5.0 miWNW (300°)6.9 mph
6:00 PM80.6 °F57.2 °F45 %29.92 in5.0 miNW (320°)5.8 mph
6:00 PM80.0 °F58.0 °F37 %29.95 in5.0 miNW (310°)5.8 mphMostly Cloudy
7:00 PM75.2 °F59.0 °F57 %29.98 in5.0 miNW (320°)11.5 mph
8:00 PM75.2 °F59.0 °F57 %30.01 in5.0 miNW (320°)15.0 mph
9:00 PM73.0 °F58.0 °F49 %30.04 in5.0 miNW (320°)13.8 mphMostly Cloudy
9:00 PM73.4 °F55.4 °F53 %30.04 in5.0 miNW (320°)13.8 mph
10:00 PM69.8 °F60.8 °F73 %30.04 in5.0 miNW (320°)15.0 mph
11:00 PM71.6 °F59.0 °F64 %30.04 in5.0 miNorth (350°)17.3 mph
Hourly data recorded from GQPP, located miles away from Port-Etienne, Mauritania







STORIES FROM OUR PARTNERS